什么值得买 ‧ 美国亚马逊好价榜

近期历史最近 100 条记录

2024-06-20 移动专享:GreenIVe - 纯蓖麻油 - 冷压 - 不含己烷 (4 盎司(约 113.4 克) 79.33元
2024-06-20 移动专享:Sensodyne 舒适达 临床白牙膏,适用于敏感牙齿,防污渍,3.4 盎司 x 3 202.44元
2024-06-20 移动专享:Bioré 面部洁面乳 治疗痤疮 男女通用 6.77盎司(约192.5克) 1件装 90.94元
2024-06-20 移动专享:L'Oreal Paris 巴黎欧莱雅 Bonding 护发素 109.4元
2024-06-20 移动专享:L’Oréal Paris 护肤套装 适合干性肤质 维生素A酸 维生素C 2件套装 356.89元
2024-06-20 移动专享:5% 咖啡因眼部精华和眼下滚轮霜,适用于黑眼圈和浮肿| 15 ml 279.81元
2024-06-19 JUVENA 柔俪兰 高级奇迹面霜 75ml 369.99元
2024-06-19 移动专享:Timex 智能石英男士潮汐温度指南针 45 毫米手表, T2N721 444.45元
2024-06-18 移动专享、移动端:Brooks Brothers 布克兄弟 男士 罗纹毛圈布半拉链,黑色//白色,X大码 618.48元
2024-06-18 移动专享、移动端:Brooks Brothers 布克兄弟 男士 罗纹毛圈布半拉链,红色,X大码 620.57元
2024-06-18 移动专享、移动端:Brooks Brothers 布克兄弟 男士棉质短袖圆领徽标 T 恤,浅麻灰色,X大码 213.02元
2024-06-18 移动专享、移动端:Brooks Brothers 布克兄弟 男士棉质短袖圆领徽标 T 恤,*蓝,X大码 218.88元
2024-06-18 移动专享、移动端:Brooks Brothers 布克兄弟 男士 免烫 弹力牛津 运动衬衫 长袖 纯色,浅蓝色,X大码 463.54元
2024-06-14 移动专享:Physicians Formula Murumuru 黄油古铜粉,0.38盎司(约10.77克) 69.55元
2024-06-14 移动专享:OLAY 日常修复和补水润肤露 502毫升 4件装 | 2008 ml 288.51元
2024-06-14 移动专享:CeraVe 面霜 保湿 无香料 适合各种肤质 维生素C 1液体盎司(约29.57毫升) 1件装 131.45元
2024-06-14 20点开始、促销活动:亚马逊海外购 618爆品全包圆 全场3折起,领券最高立减200元,14日20点可领第一波优惠券
2024-06-12 移动专享:ECCO 爱步 Moc 2.0系列 男士经典驾驶风格一脚蹬乐福鞋,黑色,12-12.5 758.08元
2024-06-12 移动专享、移动端:Brooks Brothers 布克兄弟 男士免烫弹力牛津衬衫 X大码 486.78元
2024-06-11 移动专享:Olaplex No. 5 Bond 保养护发素 1000ml 435.73元
2024-06-11 移动专享:CeraVe 身体乳液 提供滋润保湿 19液体盎司(约567毫升) 156.76元
2024-06-11 移动专享:Biotherm 碧欧泉 身体乳液 抗衰老 6.76盎司(约191.6克) 适合各种肤质 1件装 324.88元
2024-06-11 移动专享:OLAY 身体乳液 (约502.1ml) 适合成人使用 维生素E 适合各种肤质 4件装 327.85元
2024-06-11 移动专享:Biotherm 碧欧泉 面霜 保湿 (约47.9克) 透明质酸 适合中性肤质 1件装 298.16元
2024-06-11 移动专享:AUSSIE 洗发水 适合成人 修复分叉 修复分叉 杏 26.2盎司(约743.5克) 4件装 345.51元
2024-06-11 移动专享:CeraVe 保湿面霜 含透明质酸 适合各种肤质 539g 1件装 144.52元
2024-06-11 移动专享:NYX 专业彩妆眼影盘,Pressed Pigments, 16色 158.49元
2024-06-11 移动专享:Timeless Skin Care 面部精华 适合各种肤质 维生素C 维生素E 386.64元
2024-06-11 移动专享:Degree 止汗香体膏,24 小时干性保护,淋浴清洁剂,2.6 盎司(约76.88毫升),6 支装 192.67元
2024-06-11 移动专享:Biotera 造型定义凝胶不含酒精 |不含防腐剂 |适合染发 | 15.2 液体盎司 450ml 137.35元
2024-06-11 移动专享:Aveeno 艾惟诺 沐浴露和沐浴凝胶 滋润保湿 营养滋润 18液体盎司(约532毫升) 1件装 138.51元
2024-06-11 移动专享:Sisley 希思黎 全能乳液 | 60 ml 766.69元
2024-06-11 移动专享:Certain Dri 止汗滚珠除臭剂,中性,无香3 件 168.34元
2024-06-11 移动专享:Perricone MD 晚霜 液体盎司(约59毫升) 适合成人 乳酸 适合各种肤质 1件装 1039.15元
2024-06-07 Hasbro 孩之宝 变形金刚 侏罗纪公园限定联名系列 F7140 双棘龙&吉普牧马 256.94元(需买2件,共513.87元包邮,含税费59.61元)
2024-06-07 移动专享、移动端:Carhartt 男式休闲版型水洗鸭羊羊绒衬里夹克,卡哈特·布朗,X大码 852.93元
2024-06-05 移动专享:ecco 爱步 男式 Biom 2.2 织物交叉训练鞋, Ombre 867.63元
2024-06-05 移动专享:NAUTICA 诺帝卡 青年男士制服短袖 高性能牛津布纽扣衬衫,robin 蓝,Large 154元
2024-06-04 促销活动:亚马逊海外购 618年中大促 超级品类日 爆品派送4折起,新用户领券满300-30元,新用户无门槛免邮
2024-05-30 移动专享:carhartt 男士 宽松版型 水洗鸭绒羊羔绒衬里夹克 796.36元(需用券)
2024-05-30 20点开始、促销活动:亚马逊海外购 喜迎618 爆品开门红 领券最高立减100元,全品类好券每天0点火热开抢!
2024-05-23 OLYMPUS 奥林巴斯 M.Zuiko Digital 40-150mm F4.0-5.6 R 变焦镜头 1039.97元(预计进口关税98.79元)
2024-05-21 OSPREY Talon 22L 男式徒步背包 B0C62FGF7W S/M 905.35元含税直邮
2024-05-16 520心动礼:ecco 爱步 男士越野Cruiser系带登山鞋 Cocoa Brown Cocoa Brown 42 EU 959.36元包邮含税
2024-05-16 520心动礼:ecco 爱步 男士运动户外凉鞋 Black/Mole/Black,42 EU, 8/8.5 UK 723.03元包邮含税
2024-05-16 520心动礼:ecco 爱步 S Lite Moc 男士经典驾驶风格乐福鞋 8-8.5 869.14元包邮含税
2024-05-16 520心动礼:ecco 爱步 男士 Biom Hybrid Original Hydromax 防水休闲高尔夫鞋 780.6元包邮含税
2024-05-16 促销活动:亚马逊海外购 新人免邮周 新用户享0门槛免邮,满300元免运费,露得清修复精华只需70.96元
2024-05-09 哥伦比亚 女款雪地靴 $48
2024-05-08 Marmot 土拨鼠 Windridge SS 男士透气功能衬衫 B09TK35T2K L 164.72元含税直邮
2024-05-08 salomon 萨洛蒙 X Ultra Pioneer CLIMA 男士防水登山鞋 B094R2QCYQ 8.5 645.7元含税直邮
2024-05-06 促销活动:亚马逊海外购 全品类用券就购 最高立减100元 每天10点抢券,满500减50元/满1000减80元/满2000减100元
2024-05-06 OM System 奥之心 OM-5 M4/3画幅 微单相机 单机身 6241.42元(含税包邮,需用券)
2024-04-22 破冰者 女士美利奴羊毛短袖T恤 154元
2024-04-22 OM System 奥之心 OM-5 M4/3画幅 微单相机 单机身 6847.81元(含税包邮)
2024-04-22 出行好物:SIGMA 适马 30mm F1.4 DC DN Contemporary 标准定焦镜头 索尼E卡口 52mm 2238.9元(含税包邮)
2024-04-22 OLYMPUS 奥林巴斯 M.Zuiko Digital 40-150mm F4.0-5.6 R 变焦镜头 1183.46元(含税包邮)
2024-04-22 SAMSUNG 三星 T7 Shield USB3.2 移动固态硬盘 Type-C 4TB 暗夜黑 2290.29元(含税包邮)
2024-04-22 Panasonic 松下 LUMIX G85 M4/3画幅 微单相机 黑色 12-60mm F3.5 变焦镜头 单头套机 4328元(含税包邮)
2024-04-18 山浩 男式标准山地弹力连帽衫 353.97元含税包邮
2024-04-18 ecco 爱步 男士柔软经典运动鞋 5-5.5 515.3元含税包邮
2024-04-18 BANDAI 万代 数码宝贝03 驯兽师之王 红莲骑士兽 557.44元
2024-04-17 限新用户:Pokémon 宝可梦PTCG卡牌 奇树巡回赛收藏礼盒 270.32元(需用券)
2024-04-16 哈雷汉森 48365 Tech 1/2 男式拉链运动衫 海军蓝 M B07ZV2N4TC 239.73元 (含税)
2024-04-16 巴塔哥尼亚 男女同款超轻日常背包 黑色 One Size B07WNMX26V 828.08元(含税包邮)
2024-04-16 哥伦比亚 Tunnel Falls 女式三合一冲锋衣 黑色荧光印花 XS B08MQD5S21 828.08元 (含税包邮)
2024-04-16 哥伦比亚 Glennaker 男士防水夹克 石绿色 Small B08MPK4XT7 306.19元 (含税包邮)
2024-04-16 OSPREY Aether Plus 70L 男士背包 日食灰色 L/XL B08LNYBK49 2426.99元(含税包邮)
2024-04-15 亚马逊海外购 新人专享300减50元优惠券! 爆款下单立享满0元减15元!
2024-04-10 Hasbro 孩之宝 变形金刚 传世进化系列 D级 针鼻 180.79元(含税20.85元)
2024-04-10 Hasbro 孩之宝 变形金刚 传世进化系列 D级 垃圾星人 废钩 185.72元(含税21.36元)
2024-04-09 Hasbro 孩之宝 变形金刚 侏罗纪公园限定联名系列 F7140 双棘龙&吉普牧马 299.04元(需买2件,含税,需用券)
2024-03-29 KEEN Uneek Nxis 男士徒步鞋 B0B2PQRSKP 650.8元含税
2024-03-29 Prime会员:雅诗兰黛 精华液 400ml 289.85元(含税包邮)
2024-03-25 ecco 爱步 男士越野探险家两带登山鞋 792.3元含税包邮
2024-03-25 Dickies 帝客 男式直筒工装裤 棕色(Desert Sand)30 Regular 240.5元含税直邮
2020-09-22 CITIZEN 西铁城 Navihawk A-T JY8035-04E 男士光动能腕表 $249.99(约1777.35元)
2020-09-18 CITIZEN 西铁城 Navihawk A-T JY8035-04E 男士光动能腕表 $249.99(约1777.35元)
2020-09-15 Apple 苹果 MacBook Pro 2019款 16英寸笔记本电脑 (i7-9750H、16GB、512GB、Radeon Pro 5300M、3072x1920) $2099(约14923.26元)
2020-09-02 RAZER 雷蛇 灵刃15标准版 2020 15.6英寸轻薄游戏笔记本电脑(i7-10750H、16GB、512GB、RTX2060、144Hz) $1399.99(转运约9726.83元)
2020-08-31 NVIDIA 英伟达 Shield TV Pro 2019 游戏机机顶盒 $189.99(转运约1385.25元)
2020-08-24 SONY 索尼 WH-1000XM4 蓝牙降噪耳机 $348(转运约2477.09元)
2020-08-20 CASIO 卡西欧 PROTREK PRW-50T-7ACR 户外登山太阳能电波手表 $229(约1599元)
2020-08-19 CITIZEN 西铁城 Navihawk A-T JY8035-04E 男士光动能腕表 $249.99(约1746元)
2020-08-18 BOSE Soundsport wireless 入耳式蓝牙耳机 $99(转运约734.71元)
2020-08-10 SONY 索尼 WH-1000XM4 蓝牙降噪耳机 $349.99(转运约2493.58元)
2020-08-09 CITIZEN 西铁城 Navihawk A-T JY8035-04E 男士光动能腕表 $249.99(约1777.35元)
2020-08-06 Clarks Tilden Cap 男士皮鞋 $44.9(约319.23元)
2020-08-06 CASIO 卡西欧 PRW-50T-7ACR Protrek 户外登山太阳能电波手表 $229(约1628.12元)
2020-08-05 Etymotic Research 音特美 ER2XR 入耳式耳机 $99.95(转运约759.61元)
2020-08-05 CASIO 卡西欧 PRO TREK系列 PRT-B50-1CR 男士户外运动手表 $142.95(约996.65元)
2020-08-04 新品发售 : Google Pixel 4a 智能手机 6GB+128GB 无锁版 $349+ $79.86含税直邮(约¥2995)
2020-08-03 COACH 蔻驰女士平底鞋 $37.99(约270.1元)
2020-08-03 BOSE Soundsport wireless 入耳式蓝牙耳机 $99(转运约752.86元)
2020-07-30 Samsonite 新秀丽 CENTRIC hardside 行李箱 20寸 $53.7(约375元)
2020-07-30 TIMEX 天美时 TW2R66300 施华洛世奇水晶 女款时装腕表 $26.99(约188元)
2020-07-28 DJI OSMO Action 灵眸运动相机 $249(转运约1799.32元)
2020-07-20 Skullcandy 骷髅头 PUSH 真无线蓝牙耳机 黑色 408.59元含税直邮
2020-07-10 TIMEX 天美时 TW2R66300 施华洛世奇水晶 女款时装腕表 $26.99(约191元)
2020-07-06 Samsonite 新秀丽 Centric 托运行李箱 两件套 $114.99(约¥812.22)

匿名用户只展示最新 100 条榜单历史,更多历史数据请登录后查看,支持时光机按天筛选

Sponsors

今日解忧 - 赛博修行,舒缓静心,21世纪解压神器!
今日历 - 全球最全的日历,日历届的航空母舰!
百晓生AI - 全能创作助手

猜你喜欢